[[{"header":{"parameterUnit":"m.s-1","parameterCategory":1,"la1":30.2991,"la2":30.254,"lo1":-89.0895,"lo2":-89.0444,"dy":0.0017,"dx":0.0017,"nx":28,"ny":28,"refTime":"2024-02-17T09:00:00:Z","depth":0,"parameterNumber":2,"parameterNumberName":"U-component_of_WINDS"},"data":[0,0,0,0,0,0,0,0,0,0,0,0,0,0,0,0,0,0,0,0,0,0,0,0,0,0,0,0,0,0,0,0,0,0,0,0,0,0,0,0,0,0,0,0,0,0,0,0,0,0,0,0,0,0,0,0,0,0,0.7073,0.7073,0,0.7077,0.7077,0.7077,0.7066,0.7065,0.7065,0.7065,0.7069,0.7069,0.707,0,0,0,0,0,0,0,0,0,0,0,0,0,0.7055,0.7055,0.7073,0.7073,0.7073,0.7077,0.7077,0.7077,0.7066,0.7065,0.7065,0.7065,0.7069,0.7069,0.707,0,0,0,0,0,0,0,0,0,0,0,0,0,0.7061,0.7055,0.7073,0.7068,0.7067,0.7077,0.7077,0.7077,0.7066,0.7065,0.7065,0.7064,0.7069,0.7069,0.707,0.7085,0,0,0.7072,0.7072,0,0,0,0,0,0,0,0,0.7061,0.7062,0.7068,0.7068,0.7068,0.707,0.7073,0.708,0.7066,0.7066,0.7065,0.7064,0.707,0.707,0.7073,0.7085,0.7086,0.7072,0.7073,0.7073,0.7073,0,0,0,0,0,0,0,0.706,0.7062,0.7075,0.7068,0.7068,0.7065,0.7066,0.7074,0.7071,0.7066,0.7066,0.7066,0.707,0.7072,0.7073,0.7086,0.7072,0.7073,0.7073,0.7073,0.7113,0.7113,0,0,0,0,0,0,0.7061,0.7061,0.7074,0.7075,0.7063,0.7066,0.7067,0.707,0.7071,0.7071,0.7067,0.7066,0.7071,0.7072,0.7073,0.7091,0.7073,0.7074,0.7074,0.7112,0.7113,0.7114,0,0,0,0,0,0,0.706,0.7062,0.7074,0.7068,0.7069,0.7067,0.7071,0.707,0.7073,0.7071,0.7071,0.707,0.7071,0.7072,0.7083,0.7091,0.7074,0.7074,0.7111,0.7112,0.7113,0.7129,0,0,0,0,0,0,0.706,0.7062,0.7067,0.7068,0.707,0.7084,0.7072,0.7071,0.7074,0.7073,0.7074,0.7073,0.707,0.7082,0.7083,0.7092,0.7075,0.7111,0.7112,0.7113,0.7127,0.713,0.7132,0,0,0,0,0,0.7059,0.7071,0.7068,0.7069,0.7076,0.7084,0.7085,0.7081,0.7075,0.708,0.708,0.7073,0.709,0.7083,0.7085,0.7094,0.711,0.7111,0.7113,0.7126,0.7129,0.7132,0,0,0,0,0,0,0.7071,0.7071,0.7067,0.7079,0.7082,0.7082,0.7089,0.7085,0.7089,0.7088,0.7083,0.7083,0.7095,0.7095,0.7087,0.7109,0.7099,0.7101,0.7108,0.7112,0.7114,0.7114,0.7076,0,0,0,0,0,0.7075,0.7081,0.7081,0.7092,0.7093,0.7091,0.7095,0.7092,0.7094,0.7095,0.7095,0.7098,0.7104,0.7108,0.7113,0.7127,0.7128,0.7135,0.7137,0.7139,0.7141,0.715,0.7153,0.7118,0.7118,0.7118,0,0,0.7083,0.7084,0.7088,0.7094,0.7096,0.7103,0.7092,0.71,0.7105,0.7096,0.7107,0.7107,0.711,0.7123,0.7128,0.7123,0.7151,0.7141,0.7143,0.7143,0.7152,0.7155,0.7158,0.7119,0.7119,0.7119,0,0,0.7102,0.7103,0.7113,0.7115,0.7118,0.7117,0.7119,0.712,0.712,0.7131,0.7125,0.7131,0.7141,0.7144,0.7146,0.7168,0.7163,0.717,0.7183,0.7192,0.7195,0.7197,0.7206,0.7209,0.7172,0.7172,0.7172,0,0.7112,0.7122,0.7118,0.7127,0.713,0.7123,0.7133,0.7136,0.714,0.7143,0.7137,0.7151,0.7152,0.7166,0.7171,0.7173,0.7177,0.717,0.7194,0.7197,0.7199,0.7207,0.721,0.7173,0.7173,0.7172,0.7172,0,0.7135,0.7142,0.715,0.7155,0.7159,0.7169,0.7167,0.7172,0.7169,0.7168,0.718,0.7181,0.7187,0.719,0.7187,0.7205,0.7202,0.7195,0.7185,0.7203,0.7211,0.7214,0.7174,0.7174,0.7173,0.7173,0,0,0.716,0.7164,0.7167,0.717,0.7173,0.7179,0.7189,0.7195,0.72,0.7204,0.7212,0.7222,0.7216,0.7219,0.7216,0.7224,0.7243,0.7217,0.7217,0.7222,0.7263,0.7269,0.7272,0.7239,0.724,0.724,0.7263,0,0.7179,0.7196,0.7194,0.721,0.7217,0.7211,0.722,0.7223,0.7223,0.723,0.723,0.7237,0.7229,0.7231,0.7238,0.7239,0.7251,0.7237,0.7248,0.7248,0.7248,0.7276,0.7281,0.7303,0.7266,0.7267,0.7267,0,0.7204,0.7209,0.7226,0.723,0.7233,0.7241,0.7247,0.7254,0.7258,0.7257,0.7262,0.7258,0.7268,0.7258,0.7273,0.7263,0.7268,0.7269,0.7269,0.727,0.7259,0.7278,0.7309,0.7313,0.7272,0.7271,0.7271,0,0.7222,0.7233,0.7245,0.7248,0.7252,0.7258,0.726,0.7264,0.7268,0.7274,0.7277,0.7284,0.7288,0.7293,0.7292,0.7284,0.7307,0.7296,0.7308,0.7308,0.7313,0.7313,0.7346,0.7315,0.7315,0.7315,0.7315,0,0.7244,0.7255,0.7254,0.7261,0.7274,0.7271,0.7284,0.7285,0.7289,0.7297,0.7291,0.7299,0.7297,0.7304,0.7303,0.7316,0.7318,0.7318,0.7318,0.7319,0.7319,0.7322,0.732,0.7315,0.7315,0.7315,0.7315,0,0.7266,0.7265,0.7279,0.7282,0.7283,0.7292,0.7295,0.7303,0.7303,0.7314,0.7316,0.7316,0.7325,0.7324,0.7334,0.7334,0.735,0.7348,0.7349,0.7348,0.736,0.7359,0.7397,0.7402,0.7367,0.7367,0.7368,0,0.728,0.7289,0.7293,0.7299,0.7301,0.731,0.7315,0.7313,0.7318,0.7324,0.7331,0.734,0.7347,0.7362,0.7363,0.7371,0.7369,0.7382,0.737,0.7372,0.737,0.737,0.7372,0.7384,0.7384,0.7385,0.7385,0,0.7306,0.7306,0.7313,0.7321,0.7327,0.7333,0.7338,0.7343,0.7342,0.7348,0.7358,0.7363,0.7374,0.7383,0.7391,0.7394,0.739,0.7389,0.7392,0.7393,0.7394,0.7395,0.7356,0.7388,0.7387,0.7387,0.7387,0.7387,0.7325,0.7333,0.7338,0.7347,0.7351,0.7356,0.7364,0.7366,0.7373,0.7382,0.7381,0.7392,0.7397,0.7407,0.7411,0.742,0.7415,0.7419,0.7421,0.7422,0.7424,0.7392,0.7421,0.7421,0.7421,0.7421,0.7421,0,0.7351,0.7355,0.7363,0.7371,0.7378,0.7374,0.738,0.7387,0.7396,0.7402,0.7409,0.7421,0.743,0.7432,0.7441,0.7448,0.7447,0.7451,0.745,0.7451,0.7427,0.7424,0.7452,0.7452,0.7452,0.7452,0.7452,0.7452,0.7366,0.7379,0.738,0.7396,0.7399,0.741,0.7414,0.7419,0.7424,0.7437,0.7445,0.7447,0.7451,0.7461,0.7469,0.747,0.7474,0.7479,0.7479,0.7456,0.7453,0.745,0.7447,0.7479,0.7479,0.7502,0.7503,0.7503]},{"header":{"parameterUnit":"m.s-1","parameterCategory":1,"la1":30.2991,"la2":30.254,"lo1":-89.0895,"lo2":-89.0444,"dy":0.0017,"dx":0.0017,"nx":28,"ny":28,"refTime":"2024-02-17T09:00:00:Z","depth":0,"parameterNumber":3,"parameterNumberName":"V-component_of_WINDS"},"data":[0,0,0,0,0,0,0,0,0,0,0,0,0,0,0,0,0,0,0,0,0,0,0,0,0,0,0,0,0,0,0,0,0,0,0,0,0,0,0,0,0,0,0,0,0,0,0,0,0,0,0,0,0,0,0,0,0,0,-4.1239,-4.124,0,-4.1321,-4.1322,-4.1323,-4.1325,-4.1324,-4.1323,-4.1322,-4.1402,-4.1405,-4.1408,0,0,0,0,0,0,0,0,0,0,0,0,0,-4.1082,-4.1084,-4.1239,-4.124,-4.1241,-4.1321,-4.1322,-4.1323,-4.1325,-4.1323,-4.1322,-4.1321,-4.1401,-4.1404,-4.1408,0,0,0,0,0,0,0,0,0,0,0,0,0,-4.1155,-4.1085,-4.1239,-4.1251,-4.1253,-4.1321,-4.1322,-4.1323,-4.1325,-4.1323,-4.1322,-4.1321,-4.14,-4.1404,-4.1409,-4.1467,0,0,-4.1423,-4.1425,0,0,0,0,0,0,0,0,-4.1151,-4.1161,-4.1248,-4.1251,-4.1253,-4.1311,-4.1296,-4.1371,-4.1325,-4.1298,-4.1322,-4.132,-4.1373,-4.1379,-4.1398,-4.1471,-4.1474,-4.1423,-4.1426,-4.1428,-4.1429,0,0,0,0,0,0,0,-4.1146,-4.1157,-4.1271,-4.125,-4.1253,-4.1252,-4.1261,-4.131,-4.1342,-4.13,-4.13,-4.131,-4.1373,-4.1393,-4.14,-4.1476,-4.1423,-4.1427,-4.143,-4.1432,-4.1604,-4.1606,0,0,0,0,0,0,-4.1139,-4.1153,-4.1268,-4.1274,-4.1197,-4.1257,-4.1266,-4.1294,-4.1342,-4.1348,-4.1311,-4.131,-4.1386,-4.1394,-4.1403,-4.1477,-4.1428,-4.1432,-4.1435,-4.1602,-4.1604,-4.1606,0,0,0,0,0,0,-4.1135,-4.1149,-4.1265,-4.1214,-4.1228,-4.1261,-4.1292,-4.1296,-4.1316,-4.1351,-4.1356,-4.1326,-4.1385,-4.1396,-4.1452,-4.1479,-4.1434,-4.1438,-4.16,-4.1603,-4.1605,-4.1624,0,0,0,0,0,0,-4.1131,-4.1148,-4.1171,-4.1214,-4.1231,-4.1314,-4.1293,-4.1299,-4.1325,-4.1324,-4.1366,-4.1371,-4.1385,-4.1445,-4.1457,-4.1485,-4.1442,-4.1598,-4.1601,-4.1605,-4.1621,-4.1627,-4.1632,0,0,0,0,0,-4.1125,-4.1171,-4.1172,-4.1186,-4.1261,-4.1316,-4.1325,-4.1341,-4.1327,-4.135,-4.1373,-4.137,-4.1474,-4.1451,-4.1464,-4.1494,-4.1596,-4.16,-4.1604,-4.1619,-4.1626,-4.1632,0,0,0,0,0,0,-4.1128,-4.1177,-4.1178,-4.124,-4.1274,-4.1316,-4.1345,-4.1348,-4.1385,-4.1383,-4.14,-4.1409,-4.1466,-4.1485,-4.1458,-4.1555,-4.1534,-4.154,-4.154,-4.1547,-4.1553,-4.1547,-4.1446,0,0,0,0,0,-4.1136,-4.1177,-4.1217,-4.1268,-4.1285,-4.1312,-4.1337,-4.1347,-4.1382,-4.1396,-4.1422,-4.1456,-4.1497,-4.1523,-4.1562,-4.1624,-4.1634,-4.1651,-4.1656,-4.1661,-4.1667,-4.1704,-4.1712,-4.162,-4.162,-4.162,0,0,-4.1152,-4.1184,-4.1209,-4.1269,-4.1297,-4.1339,-4.1324,-4.1369,-4.1401,-4.1402,-4.1458,-4.1478,-4.1517,-4.1577,-4.1605,-4.1595,-4.1695,-4.1666,-4.1669,-4.1673,-4.1709,-4.1717,-4.1725,-4.1623,-4.1622,-4.1622,0,0,-4.1204,-4.1232,-4.1278,-4.1307,-4.135,-4.1368,-4.1379,-4.1422,-4.1437,-4.1493,-4.1496,-4.1533,-4.1602,-4.1631,-4.1654,-4.172,-4.1719,-4.1732,-4.1761,-4.1796,-4.1804,-4.181,-4.1836,-4.1844,-4.1737,-4.1737,-4.1738,0,-4.1219,-4.1284,-4.1301,-4.1348,-4.1375,-4.138,-4.1428,-4.1454,-4.1507,-4.1525,-4.1514,-4.1603,-4.1629,-4.1697,-4.1714,-4.1732,-4.1746,-4.1727,-4.1801,-4.1808,-4.1815,-4.1839,-4.1848,-4.1739,-4.1739,-4.1739,-4.1738,0,-4.1301,-4.1346,-4.1378,-4.1432,-4.1462,-4.1508,-4.1533,-4.1562,-4.157,-4.1589,-4.1648,-4.168,-4.1727,-4.1743,-4.175,-4.1813,-4.1806,-4.1798,-4.1777,-4.1825,-4.1848,-4.1857,-4.1741,-4.174,-4.174,-4.174,0,0,-4.1355,-4.142,-4.1432,-4.1458,-4.1507,-4.1542,-4.1589,-4.1637,-4.1662,-4.1698,-4.1739,-4.1799,-4.1792,-4.1819,-4.1829,-4.186,-4.1913,-4.1848,-4.185,-4.1861,-4.1987,-4.1994,-4.2005,-4.1913,-4.1915,-4.1916,-4.1985,0,-4.1414,-4.15,-4.1518,-4.1592,-4.1635,-4.1642,-4.1683,-4.1718,-4.1738,-4.1777,-4.1798,-4.1841,-4.1829,-4.1845,-4.1876,-4.19,-4.1939,-4.1895,-4.1951,-4.1953,-4.1943,-4.2017,-4.2024,-4.2087,-4.1994,-4.1995,-4.1996,0,-4.1493,-4.1535,-4.1614,-4.166,-4.1679,-4.1716,-4.1763,-4.18,-4.1839,-4.1852,-4.1883,-4.1891,-4.194,-4.1917,-4.1986,-4.1956,-4.198,-4.1995,-4.1998,-4.2005,-4.1978,-4.2027,-4.2107,-4.2117,-4.2011,-4.2009,-4.2008,0,-4.1528,-4.1603,-4.1661,-4.1682,-4.1737,-4.1763,-4.1787,-4.1825,-4.1854,-4.1894,-4.1913,-4.1958,-4.1983,-4.2018,-4.2037,-4.2018,-4.2106,-4.2083,-4.2118,-4.2118,-4.2137,-4.2136,-4.2224,-4.215,-4.215,-4.2149,-4.2149,0,-4.1593,-4.1641,-4.1678,-4.1714,-4.1769,-4.179,-4.1843,-4.1866,-4.1901,-4.1941,-4.1949,-4.1986,-4.2009,-4.205,-4.2065,-4.2122,-4.2132,-4.2144,-4.2148,-4.2144,-4.2143,-4.2161,-4.2158,-4.2152,-4.2151,-4.2151,-4.215,0,-4.164,-4.1667,-4.1731,-4.1779,-4.1792,-4.183,-4.1871,-4.1906,-4.1927,-4.1978,-4.1991,-4.2023,-4.2072,-4.2095,-4.2154,-4.2165,-4.223,-4.2229,-4.2217,-4.2219,-4.2253,-4.225,-4.2357,-4.2373,-4.2287,-4.2288,-4.2288,0,-4.168,-4.1719,-4.1771,-4.18,-4.1825,-4.187,-4.1901,-4.1923,-4.1954,-4.2004,-4.2033,-4.2083,-4.2124,-4.2201,-4.223,-4.2276,-4.2278,-4.2312,-4.2285,-4.2281,-4.2281,-4.2279,-4.2284,-4.2317,-4.2318,-4.2319,-4.2319,0,-4.1749,-4.1762,-4.1806,-4.1855,-4.1892,-4.1931,-4.197,-4.1992,-4.2021,-4.2055,-4.2107,-4.2139,-4.2202,-4.2251,-4.23,-4.2323,-4.2327,-4.2328,-4.2339,-4.2336,-4.2328,-4.2335,-4.2233,-4.2325,-4.2325,-4.2324,-4.2324,-4.2324,-4.1796,-4.1831,-4.1875,-4.1925,-4.1957,-4.1993,-4.203,-4.2057,-4.21,-4.2155,-4.2165,-4.222,-4.226,-4.2326,-4.2352,-4.2395,-4.2387,-4.2402,-4.2406,-4.241,-4.2413,-4.2321,-4.2404,-4.2403,-4.2403,-4.2403,-4.2403,0,-4.1867,-4.1896,-4.1942,-4.1998,-4.2037,-4.2038,-4.2082,-4.2114,-4.2163,-4.2202,-4.2243,-4.2303,-4.2352,-4.2385,-4.2435,-4.2463,-4.2466,-4.2475,-4.2474,-4.248,-4.2416,-4.2403,-4.2472,-4.2472,-4.2472,-4.2472,-4.2472,-4.2472,-4.1909,-4.197,-4.1987,-4.2065,-4.2093,-4.2149,-4.2174,-4.2208,-4.224,-4.2307,-4.2349,-4.2371,-4.2408,-4.246,-4.2505,-4.2514,-4.2533,-4.2543,-4.2551,-4.2491,-4.2484,-4.2477,-4.2465,-4.2546,-4.2546,-4.2612,-4.2612,-4.2613]}]]